Nancy M — WDF3398 — position and weather

sailwx.info

Track history (hours):
 
Tides and Currents Weather Stations Pressure Air Temp Water Temp Dewpoint Dewpoint Depression Visibility Wind Speed Wind Dir Waves Ship Positions

Nancy M

Owner: MANSON CONSTRUCTION CO., SEATTLE, WA. More information available from US FCC via Universal Licensing System and Coast Guard Vessel Documentation Center.

Last reported at 2016-May-03 01:33 UTC. Time now 2016-May-27 06:32 UTC.
Position N 52°15' W 128°19'.
Warning: this ship's position is 24 days out of date.

Length 24 m; draft 4 m.

Type: Tug. MMSI: 367439390.

Date/timePositionNaut miles runAvg speedWind from/ knotsBaromVisibWave heightAir tempDewpointWater temp
2016-May-03 01:33N 52°15' W 128°19'4 4.2
2016-May-03 00:33N 52°14' W 128°12'4 4.5
2016-May-02 23:33N 52°17' W 128°07'5 4.5
2016-May-02 22:29N 52°19' W 127°59'8 4.3
2016-May-02 20:30N 52°11' W 127°53'4 4.1
2016-May-02 19:33N 52°07' W 127°53'4 3.3
2016-May-02 18:29N 52°04' W 127°55'5 4.7
2016-May-02 17:30N 51°59' W 127°56'41 4.5
2016-May-02 08:15N 51°18' W 127°53'3 4.5
2016-May-02 07:33N 51°15' W 127°52'4 4.3
2016-May-02 06:32N 51°10' W 127°51'5 4.7
2016-May-02 05:33N 51°07' W 127°46'5 4.7
2016-May-02 04:33N 51°04' W 127°40'5 4.7
2016-May-02 03:33N 51°00' W 127°35'5 4.5
2016-May-02 02:33N 50°58' W 127°30'4 4.1
2016-May-02 01:33N 50°55' W 127°25'4 4.3
2016-May-02 00:33N 50°52' W 127°20'5 4.6
2016-May-01 23:32N 50°49' W 127°14'6 4.8
2016-May-01 22:14N 50°45' W 127°07'67 5.7
2016-May-01 10:32N 50°21' W 125°29'6 5.9
2016-May-01 09:33N 50°16' W 125°23'6 6.1
2016-May-01 08:30N 50°09' W 125°21'4 3.9
2016-May-01 07:34N 50°06' W 125°19'0 0.2
2016-May-01 06:33N 50°06' W 125°19'3 3.1
2016-May-01 05:33N 50°04' W 125°16'3 3.1
2016-May-01 04:33N 50°01' W 125°14'2 2.4
2016-May-01 03:33N 49°59' W 125°12'3 3.0
2016-May-01 02:33N 49°57' W 125°08'5 4.6
2016-May-01 01:33N 49°54' W 125°03'5 4.8
2016-May-01 00:33N 49°51' W 124°57'5 4.7
2016-Apr-30 23:33N 49°48' W 124°51'5 4.7
2016-Apr-30 22:33N 49°45' W 124°46'5 4.5
2016-Apr-30 21:33N 49°42' W 124°40'4 4.4
2016-Apr-30 20:33N 49°40' W 124°35'4 4.4
2016-Apr-30 19:33N 49°37' W 124°30'5 4.7
2016-Apr-30 18:33N 49°34' W 124°24'5 4.8
2016-Apr-30 17:33N 49°32' W 124°17'5 5.1
2016-Apr-30 16:33N 49°30' W 124°10'5 4.7
2016-Apr-30 15:33N 49°27' W 124°04'5 4.7
2016-Apr-30 14:33N 49°25' W 123°58'5 4.9
2016-Apr-30 13:33N 49°22' W 123°52'5 4.9
2016-Apr-30 12:33N 49°20' W 123°45'5 4.6
2016-Apr-30 11:33N 49°17' W 123°40'4 4.0
2016-Apr-30 10:33N 49°14' W 123°35'4 4.1
2016-Apr-30 09:33N 49°11' W 123°31'4 4.4
2016-Apr-30 08:33N 49°08' W 123°26'5 4.6
2016-Apr-30 07:33N 49°05' W 123°21'5 4.5
2016-Apr-30 06:33N 49°02' W 123°16'5 4.6
2016-Apr-30 05:33N 48°59' W 123°11'5 4.7
2016-Apr-30 04:33N 48°55' W 123°06'5 5.1
2016-Apr-30 03:33N 48°52' W 122°60'5 5.3
2016-Apr-30 02:33N 48°49' W 122°54'6 5.5
2016-Apr-30 01:33N 48°46' W 122°47'5 4.8
2016-Apr-30 00:33N 48°42' W 122°43'4 3.6
2016-Apr-29 23:33N 48°38' W 122°44'3 2.8
2016-Apr-29 22:33N 48°36' W 122°45'3 2.8
2016-Apr-29 21:33N 48°33' W 122°44'3 2.5
2016-Apr-29 20:33N 48°30' W 122°44'3 3.1
2016-Apr-29 19:33N 48°27' W 122°44'4 4.0
2016-Apr-29 18:33N 48°23' W 122°44'5 4.8
2016-Apr-29 17:33N 48°19' W 122°46'5 4.7
2016-Apr-29 16:33N 48°14' W 122°48'14 4.6
2016-Apr-29 13:27N 48°02' W 122°37'5 5.0
2016-Apr-29 12:33N 47°58' W 122°34'5 5.0
2016-Apr-29 11:33N 47°55' W 122°28'5 5.3
2016-Apr-29 10:33N 47°49' W 122°26'5 4.8
2016-Apr-29 09:33N 47°45' W 122°25'5 4.7
2016-Apr-29 08:33N 47°40' W 122°27'5 5.0
2016-Apr-29 07:33N 47°35' W 122°26'3 3.0
2016-Apr-29 06:33N 47°32' W 122°25'3 3.5
2016-Apr-29 05:33N 47°29' W 122°24'4 4.5
2016-Apr-29 04:33N 47°25' W 122°22'4 4.2
2016-Apr-29 03:33N 47°21' W 122°24'4 3.9
2016-Apr-29 02:33N 47°17' W 122°25'1 1.0
2016-Apr-29 01:19N 47°16' W 122°24'1 0.2
2016-Apr-28 21:33N 47°17' W 122°25'1 0.5
2016-Apr-28 20:09N 47°16' W 122°24'0 0.0
2016-Apr-28 18:09N 47°16' W 122°24'0 0.0
2016-Apr-28 13:33N 47°16' W 122°24'0 0.1
2016-Apr-28 12:33N 47°16' W 122°24'5 4.7
2016-Apr-28 11:33N 47°21' W 122°27'8 5.6
2016-Apr-28 10:04N 47°29' W 122°24'3 6.6
2016-Apr-28 09:33N 47°32' W 122°25'3 3.4
2016-Apr-28 08:33N 47°35' W 122°22'2 1.5
2016-Apr-28 07:33N 47°33' W 122°20'0 0.0
2016-Apr-28 06:33N 47°33' W 122°20'0 0.0
2016-Apr-28 05:33N 47°33' W 122°20'0 0.0
2016-Apr-28 04:33N 47°33' W 122°20'0 0.0
2016-Apr-28 03:33N 47°33' W 122°20'0 0.0
2016-Apr-28 02:28N 47°33' W 122°20'0 0.0
2016-Apr-28 01:33N 47°33' W 122°20'0 0.0
2016-Apr-28 00:34N 47°33' W 122°20'0 0.0
2016-Apr-27 23:33N 47°33' W 122°20'0 0.0
2016-Apr-27 22:33N 47°33' W 122°20'0 0.0
2016-Apr-27 21:33N 47°33' W 122°20'0 0.0
2016-Apr-27 20:33N 47°33' W 122°20'0 0.0
2016-Apr-27 19:33N 47°33' W 122°20'0 0.0
2016-Apr-27 18:32N 47°33' W 122°20'0 0.0
2016-Apr-27 17:32N 47°33' W 122°20'0 0.0
2016-Apr-27 16:33N 47°33' W 122°20'0 0.0
2016-Apr-27 14:33N 47°33' W 122°20'0 0.0
2016-Apr-27 13:33N 47°33' W 122°20'0 0.0
2016-Apr-27 12:33N 47°33' W 122°20'0 0.0
2016-Apr-27 11:33N 47°33' W 122°20'0 0.0
2016-Apr-27 10:33N 47°33' W 122°20'0 0.0
2016-Apr-27 09:33N 47°33' W 122°20'0 0.0
2016-Apr-27 08:33N 47°33' W 122°20'0 0.0
2016-Apr-27 07:33N 47°33' W 122°20'0 0.0
2016-Apr-27 06:33N 47°33' W 122°20'0 0.0
2016-Apr-27 05:33N 47°33' W 122°20'0 0.0
2016-Apr-27 04:33N 47°33' W 122°20'0 0.0
2016-Apr-27 03:33N 47°33' W 122°20'0 0.0
2016-Apr-27 02:33N 47°33' W 122°20'0 0.0
2016-Apr-27 01:33N 47°33' W 122°20'0 0.0
2016-Apr-27 00:33N 47°33' W 122°20'0 0.0
2016-Apr-26 23:33N 47°33' W 122°20'0 0.0
2016-Apr-26 22:33N 47°33' W 122°20'0 0.0
2016-Apr-26 21:33N 47°33' W 122°20'0 0.0
2016-Apr-26 20:33N 47°33' W 122°20'0 0.0
2016-Apr-26 19:34N 47°33' W 122°20'0 0.0
2016-Apr-26 18:33N 47°33' W 122°20'0 0.0
2016-Apr-26 17:33N 47°33' W 122°20'0 0.0
2016-Apr-26 16:33N 47°33' W 122°20'0 0.0
2016-Apr-26 15:33N 47°33' W 122°20'0 0.0
2016-Apr-26 14:33N 47°33' W 122°20'0 0.0
2016-Apr-26 13:33N 47°33' W 122°20'0 0.0
2016-Apr-26 12:33N 47°33' W 122°20'0 0.0
2016-Apr-26 11:33N 47°33' W 122°20'0 0.0
2016-Apr-26 10:33N 47°33' W 122°20'0 0.0
2016-Apr-26 09:34N 47°33' W 122°20'0 0.0
2016-Apr-26 08:34N 47°33' W 122°20'0 0.0
2016-Apr-26 07:33N 47°33' W 122°20'0 0.0
2016-Apr-26 06:33N 47°33' W 122°20'0 0.0
2016-Apr-26 05:33N 47°33' W 122°20'0 0.0
2016-Apr-26 04:33N 47°33' W 122°20'0 0.0
2016-Apr-26 03:33N 47°33' W 122°20'0 0.0
2016-Apr-26 02:33N 47°33' W 122°20'0 0.0
2016-Apr-26 01:33N 47°33' W 122°20'1 0.6
2016-Apr-26 00:33N 47°34' W 122°21'3 3.2
2016-Apr-25 23:33N 47°37' W 122°23'5 4.9
2016-Apr-25 22:33N 47°40' W 122°28'8 8.1
2016-Apr-25 21:33N 47°48' W 122°28'8 7.9
2016-Apr-25 20:33N 47°55' W 122°32'23 5.2
2016-Apr-25 16:11N 48°16' W 122°48'6 8.4
2016-Apr-25 15:29N 48°21' W 122°46'7 8.1
2016-Apr-25 14:33N 48°29' W 122°45'8 8.1
2016-Apr-25 13:33N 48°37' W 122°45'7 7.3
2016-Apr-25 12:33N 48°44' W 122°47'8 7.7
2016-Apr-25 11:33N 48°48' W 122°56'8 8.2
2016-Apr-25 10:34N 48°52' W 123°07'8 8.4
2016-Apr-25 09:34N 48°58' W 123°16'8 8.0
2016-Apr-25 08:34N 49°04' W 123°24'8 8.0
2016-Apr-25 07:33N 49°10' W 123°32'8 8.4
2016-Apr-25 06:33N 49°17' W 123°40'8 8.3
2016-Apr-25 05:33N 49°23' W 123°49'8 8.3
2016-Apr-25 04:33N 49°26' W 124°01'8 8.0
2016-Apr-25 03:34N 49°30' W 124°11'8 8.1
2016-Apr-25 02:33N 49°34' W 124°23'8 8.4
2016-Apr-25 01:33N 49°39' W 124°33'9 8.5
2016-Apr-25 00:34N 49°44' W 124°44'8 8.1
2016-Apr-24 23:34N 49°49' W 124°53'8 7.9
2016-Apr-24 22:33N 49°54' W 125°03'8 8.3
2016-Apr-24 21:34N 49°60' W 125°12'9 9.3
2016-Apr-24 20:34N 50°07' W 125°20'7 6.5
2016-Apr-24 19:33N 50°14' W 125°23'1 0.5
2016-Apr-24 18:33N 50°13' W 125°23'3 3.3
2016-Apr-24 17:33N 50°17' W 125°24'4 3.8
2016-Apr-24 16:33N 50°20' W 125°26'71 7.0
2016-Apr-24 06:18N 50°47' W 127°10'6 8.3
2016-Apr-24 05:34N 50°51' W 127°17'8 7.8
2016-Apr-24 04:33N 50°56' W 127°27'7 7.1
2016-Apr-24 03:34N 51°00' W 127°35'7 7.2
2016-Apr-24 02:34N 51°05' W 127°44'55 7.8
2016-Apr-23 19:30N 51°60' W 127°56'12 5.9
2016-Apr-23 17:26N 52°09' W 128°08'5 5.4
2016-Apr-23 16:33N 52°14' W 128°11'  
Track history (hours):
 
Tides and Currents Weather Stations Pressure Air Temp Water Temp Dewpoint Dewpoint Depression Visibility Wind Speed Wind Dir Waves Ship Positions

Nancy M

Owner: MANSON CONSTRUCTION CO., SEATTLE, WA. More information available from US FCC via Universal Licensing System and Coast Guard Vessel Documentation Center.

Last reported at 2016-May-03 01:33 UTC. Time now 2016-May-27 06:32 UTC.
Position N 52°15' W 128°19'.
Warning: this ship's position is 24 days out of date.

Length 24 m; draft 4 m.

Type: Tug. MMSI: 367439390.

Date/timePositionNaut miles runAvg speedWind from/ knotsBaromVisibWave heightAir tempDewpointWater temp
2016-May-03 01:33N 52°15' W 128°19'4 4.2
2016-May-03 00:33N 52°14' W 128°12'4 4.5
2016-May-02 23:33N 52°17' W 128°07'5 4.5
2016-May-02 22:29N 52°19' W 127°59'8 4.3
2016-May-02 20:30N 52°11' W 127°53'4 4.1
2016-May-02 19:33N 52°07' W 127°53'4 3.3
2016-May-02 18:29N 52°04' W 127°55'5 4.7
2016-May-02 17:30N 51°59' W 127°56'41 4.5
2016-May-02 08:15N 51°18' W 127°53'3 4.5
2016-May-02 07:33N 51°15' W 127°52'4 4.3
2016-May-02 06:32N 51°10' W 127°51'5 4.7
2016-May-02 05:33N 51°07' W 127°46'5 4.7
2016-May-02 04:33N 51°04' W 127°40'5 4.7
2016-May-02 03:33N 51°00' W 127°35'5 4.5
2016-May-02 02:33N 50°58' W 127°30'4 4.1
2016-May-02 01:33N 50°55' W 127°25'4 4.3
2016-May-02 00:33N 50°52' W 127°20'5 4.6
2016-May-01 23:32N 50°49' W 127°14'6 4.8
2016-May-01 22:14N 50°45' W 127°07'67 5.7
2016-May-01 10:32N 50°21' W 125°29'6 5.9
2016-May-01 09:33N 50°16' W 125°23'6 6.1
2016-May-01 08:30N 50°09' W 125°21'4 3.9
2016-May-01 07:34N 50°06' W 125°19'0 0.2
2016-May-01 06:33N 50°06' W 125°19'3 3.1
2016-May-01 05:33N 50°04' W 125°16'3 3.1
2016-May-01 04:33N 50°01' W 125°14'2 2.4
2016-May-01 03:33N 49°59' W 125°12'3 3.0
2016-May-01 02:33N 49°57' W 125°08'5 4.6
2016-May-01 01:33N 49°54' W 125°03'5 4.8
2016-May-01 00:33N 49°51' W 124°57'5 4.7
2016-Apr-30 23:33N 49°48' W 124°51'5 4.7
2016-Apr-30 22:33N 49°45' W 124°46'5 4.5
2016-Apr-30 21:33N 49°42' W 124°40'4 4.4
2016-Apr-30 20:33N 49°40' W 124°35'4 4.4
2016-Apr-30 19:33N 49°37' W 124°30'5 4.7
2016-Apr-30 18:33N 49°34' W 124°24'5 4.8
2016-Apr-30 17:33N 49°32' W 124°17'5 5.1
2016-Apr-30 16:33N 49°30' W 124°10'5 4.7
2016-Apr-30 15:33N 49°27' W 124°04'5 4.7
2016-Apr-30 14:33N 49°25' W 123°58'5 4.9
2016-Apr-30 13:33N 49°22' W 123°52'5 4.9
2016-Apr-30 12:33N 49°20' W 123°45'5 4.6
2016-Apr-30 11:33N 49°17' W 123°40'4 4.0
2016-Apr-30 10:33N 49°14' W 123°35'4 4.1
2016-Apr-30 09:33N 49°11' W 123°31'4 4.4
2016-Apr-30 08:33N 49°08' W 123°26'5 4.6
2016-Apr-30 07:33N 49°05' W 123°21'5 4.5
2016-Apr-30 06:33N 49°02' W 123°16'5 4.6
2016-Apr-30 05:33N 48°59' W 123°11'5 4.7
2016-Apr-30 04:33N 48°55' W 123°06'5 5.1
2016-Apr-30 03:33N 48°52' W 122°60'5 5.3
2016-Apr-30 02:33N 48°49' W 122°54'6 5.5
2016-Apr-30 01:33N 48°46' W 122°47'5 4.8
2016-Apr-30 00:33N 48°42' W 122°43'4 3.6
2016-Apr-29 23:33N 48°38' W 122°44'3 2.8
2016-Apr-29 22:33N 48°36' W 122°45'3 2.8
2016-Apr-29 21:33N 48°33' W 122°44'3 2.5
2016-Apr-29 20:33N 48°30' W 122°44'3 3.1
2016-Apr-29 19:33N 48°27' W 122°44'4 4.0
2016-Apr-29 18:33N 48°23' W 122°44'5 4.8
2016-Apr-29 17:33N 48°19' W 122°46'5 4.7
2016-Apr-29 16:33N 48°14' W 122°48'14 4.6
2016-Apr-29 13:27N 48°02' W 122°37'5 5.0
2016-Apr-29 12:33N 47°58' W 122°34'5 5.0
2016-Apr-29 11:33N 47°55' W 122°28'5 5.3
2016-Apr-29 10:33N 47°49' W 122°26'5 4.8
2016-Apr-29 09:33N 47°45' W 122°25'5 4.7
2016-Apr-29 08:33N 47°40' W 122°27'5 5.0
2016-Apr-29 07:33N 47°35' W 122°26'3 3.0
2016-Apr-29 06:33N 47°32' W 122°25'3 3.5
2016-Apr-29 05:33N 47°29' W 122°24'4 4.5
2016-Apr-29 04:33N 47°25' W 122°22'4 4.2
2016-Apr-29 03:33N 47°21' W 122°24'4 3.9
2016-Apr-29 02:33N 47°17' W 122°25'1 1.0
2016-Apr-29 01:19N 47°16' W 122°24'1 0.2
2016-Apr-28 21:33N 47°17' W 122°25'1 0.5
2016-Apr-28 20:09N 47°16' W 122°24'0 0.0
2016-Apr-28 18:09N 47°16' W 122°24'0 0.0
2016-Apr-28 13:33N 47°16' W 122°24'0 0.1
2016-Apr-28 12:33N 47°16' W 122°24'5 4.7
2016-Apr-28 11:33N 47°21' W 122°27'8 5.6
2016-Apr-28 10:04N 47°29' W 122°24'3 6.6
2016-Apr-28 09:33N 47°32' W 122°25'3 3.4
2016-Apr-28 08:33N 47°35' W 122°22'2 1.5
2016-Apr-28 07:33N 47°33' W 122°20'0 0.0
2016-Apr-28 06:33N 47°33' W 122°20'0 0.0
2016-Apr-28 05:33N 47°33' W 122°20'0 0.0
2016-Apr-28 04:33N 47°33' W 122°20'0 0.0
2016-Apr-28 03:33N 47°33' W 122°20'0 0.0
2016-Apr-28 02:28N 47°33' W 122°20'0 0.0
2016-Apr-28 01:33N 47°33' W 122°20'0 0.0
2016-Apr-28 00:34N 47°33' W 122°20'0 0.0
2016-Apr-27 23:33N 47°33' W 122°20'0 0.0
2016-Apr-27 22:33N 47°33' W 122°20'0 0.0
2016-Apr-27 21:33N 47°33' W 122°20'0 0.0
2016-Apr-27 20:33N 47°33' W 122°20'0 0.0
2016-Apr-27 19:33N 47°33' W 122°20'0 0.0
2016-Apr-27 18:32N 47°33' W 122°20'0 0.0
2016-Apr-27 17:32N 47°33' W 122°20'0 0.0
2016-Apr-27 16:33N 47°33' W 122°20'0 0.0
2016-Apr-27 14:33N 47°33' W 122°20'0 0.0
2016-Apr-27 13:33N 47°33' W 122°20'0 0.0
2016-Apr-27 12:33N 47°33' W 122°20'0 0.0
2016-Apr-27 11:33N 47°33' W 122°20'0 0.0
2016-Apr-27 10:33N 47°33' W 122°20'0 0.0
2016-Apr-27 09:33N 47°33' W 122°20'0 0.0
2016-Apr-27 08:33N 47°33' W 122°20'0 0.0
2016-Apr-27 07:33N 47°33' W 122°20'0 0.0
2016-Apr-27 06:33N 47°33' W 122°20'0 0.0
2016-Apr-27 05:33N 47°33' W 122°20'0 0.0
2016-Apr-27 04:33N 47°33' W 122°20'0 0.0
2016-Apr-27 03:33N 47°33' W 122°20'0 0.0
2016-Apr-27 02:33N 47°33' W 122°20'0 0.0
2016-Apr-27 01:33N 47°33' W 122°20'0 0.0
2016-Apr-27 00:33N 47°33' W 122°20'0 0.0
2016-Apr-26 23:33N 47°33' W 122°20'0 0.0
2016-Apr-26 22:33N 47°33' W 122°20'0 0.0
2016-Apr-26 21:33N 47°33' W 122°20'0 0.0
2016-Apr-26 20:33N 47°33' W 122°20'0 0.0
2016-Apr-26 19:34N 47°33' W 122°20'0 0.0
2016-Apr-26 18:33N 47°33' W 122°20'0 0.0
2016-Apr-26 17:33N 47°33' W 122°20'0 0.0
2016-Apr-26 16:33N 47°33' W 122°20'0 0.0
2016-Apr-26 15:33N 47°33' W 122°20'0 0.0
2016-Apr-26 14:33N 47°33' W 122°20'0 0.0
2016-Apr-26 13:33N 47°33' W 122°20'0 0.0
2016-Apr-26 12:33N 47°33' W 122°20'0 0.0
2016-Apr-26 11:33N 47°33' W 122°20'0 0.0
2016-Apr-26 10:33N 47°33' W 122°20'0 0.0
2016-Apr-26 09:34N 47°33' W 122°20'0 0.0
2016-Apr-26 08:34N 47°33' W 122°20'0 0.0
2016-Apr-26 07:33N 47°33' W 122°20'0 0.0
2016-Apr-26 06:33N 47°33' W 122°20'0 0.0
2016-Apr-26 05:33N 47°33' W 122°20'0 0.0
2016-Apr-26 04:33N 47°33' W 122°20'0 0.0
2016-Apr-26 03:33N 47°33' W 122°20'0 0.0
2016-Apr-26 02:33N 47°33' W 122°20'0 0.0
2016-Apr-26 01:33N 47°33' W 122°20'1 0.6
2016-Apr-26 00:33N 47°34' W 122°21'3 3.2
2016-Apr-25 23:33N 47°37' W 122°23'5 4.9
2016-Apr-25 22:33N 47°40' W 122°28'8 8.1
2016-Apr-25 21:33N 47°48' W 122°28'8 7.9
2016-Apr-25 20:33N 47°55' W 122°32'23 5.2
2016-Apr-25 16:11N 48°16' W 122°48'6 8.4
2016-Apr-25 15:29N 48°21' W 122°46'7 8.1
2016-Apr-25 14:33N 48°29' W 122°45'8 8.1
2016-Apr-25 13:33N 48°37' W 122°45'7 7.3
2016-Apr-25 12:33N 48°44' W 122°47'8 7.7
2016-Apr-25 11:33N 48°48' W 122°56'8 8.2
2016-Apr-25 10:34N 48°52' W 123°07'8 8.4
2016-Apr-25 09:34N 48°58' W 123°16'8 8.0
2016-Apr-25 08:34N 49°04' W 123°24'8 8.0
2016-Apr-25 07:33N 49°10' W 123°32'8 8.4
2016-Apr-25 06:33N 49°17' W 123°40'8 8.3
2016-Apr-25 05:33N 49°23' W 123°49'8 8.3
2016-Apr-25 04:33N 49°26' W 124°01'8 8.0
2016-Apr-25 03:34N 49°30' W 124°11'8 8.1
2016-Apr-25 02:33N 49°34' W 124°23'8 8.4
2016-Apr-25 01:33N 49°39' W 124°33'9 8.5
2016-Apr-25 00:34N 49°44' W 124°44'8 8.1
2016-Apr-24 23:34N 49°49' W 124°53'8 7.9
2016-Apr-24 22:33N 49°54' W 125°03'8 8.3
2016-Apr-24 21:34N 49°60' W 125°12'9 9.3
2016-Apr-24 20:34N 50°07' W 125°20'7 6.5
2016-Apr-24 19:33N 50°14' W 125°23'1 0.5
2016-Apr-24 18:33N 50°13' W 125°23'3 3.3
2016-Apr-24 17:33N 50°17' W 125°24'4 3.8
2016-Apr-24 16:33N 50°20' W 125°26'71 7.0
2016-Apr-24 06:18N 50°47' W 127°10'6 8.3
2016-Apr-24 05:34N 50°51' W 127°17'8 7.8
2016-Apr-24 04:33N 50°56' W 127°27'7 7.1
2016-Apr-24 03:34N 51°00' W 127°35'7 7.2
2016-Apr-24 02:34N 51°05' W 127°44'55 7.8
2016-Apr-23 19:30N 51°60' W 127°56'12 5.9
2016-Apr-23 17:26N 52°09' W 128°08'5 5.4
2016-Apr-23 16:33N 52°14' W 128°11'  

Dump ship's entire track history